Flag for Canada Weather past 2 weeks in Surrey, British Columbia, Canada

Now
41 °F

Quite cool.


Feels Like: 41 °F
Forecast: 41 / 54 °F
Wind: 1 mph from Southeast

Location: P. Meadows Coastal Station

Current Time: Jan 26, 2015 at 12:39:49 AM

Latest Report: Jan 26, 2015 at 12:00 AM


Visibility: N/A

Pressure: 29.99 "Hg

Humidity: 99%

Dew point: 40 °F

Location of SurreyLocation

Historic Weather in Surrey — Graph

°F

Surrey temperature yesterday

Maximum temperature yesterday: 57 °F (at 1:00 PM)
Minimum temperature yesterday: 41 °F (at 11:00 PM)
Average temperature yesterday: 50 °F

Past Weeks' High & Low Weather Summary

 TemperatureHumidityPressure
High57 °F (Jan 25, 1:00 PM)100% (Jan 11, 5:00 AM)30.50 "Hg (Jan 11, 5:00 AM)
Low29 °F (Jan 15, 5:00 AM)62% (Jan 19, 4:00 PM)29.47 "Hg (Jan 18, 1:00 AM)
Average43 °F94%30.20 "Hg
* Reported Jan 10 11:00 PM — Jan 25 11:00 PM, Surrey, Weather by CustomWeather, © 2014

Note: Actual official high and low records may vary slightly from our data, if they occured in-between our weather recording intervals... More about our weather records

Advertising

Surrey weather history for previous 24 hours

 ConditionsComfort  
Time TempWeatherWind HumidityBarometerVisibility
11:00 PM
Jan 25
41 °FQuite cool.2 mph98%30.01 "HgN/A
10:00 PM41 °FQuite cool.1 mph98%30.02 "HgN/A
9:00 PM45 °FQuite cool.2 mph90%30.03 "HgN/A
8:00 PM48 °FCool.1 mph94%30.05 "HgN/A
7:00 PM52 °FCool.3 mph86%30.07 "HgN/A
6:00 PM52 °FCool.3 mph91%30.07 "HgN/A
5:00 PM53 °FCool.3 mph85%30.07 "HgN/A
4:00 PM55 °FCool.7 mph82%30.08 "HgN/A
3:00 PM56 °FCool.8 mph82%30.10 "HgN/A
2:00 PM54 °FCool.10 mph86%30.11 "HgN/A
1:00 PM57 °FCool.6 mph81%30.14 "HgN/A
12:00 PM55 °FCool.6 mph88%30.16 "HgN/A
11:00 AM53 °FCool.2 mph99%30.17 "HgN/A
10:00 AM51 °FCool.2 mph92%30.18 "HgN/A
9:00 AM51 °FCool.No wind99%30.18 "HgN/A
8:00 AM47 °FCool.2 mph99%30.18 "HgN/A
7:00 AM47 °FCool.2 mph99%30.19 "HgN/A
6:00 AM47 °FCool.No wind99%30.19 "HgN/A
5:00 AM47 °FCool.1 mph99%30.20 "HgN/A
4:00 AM47 °FCool.1 mph99%30.19 "HgN/A
3:00 AM49 °FCool.No wind99%30.19 "HgN/A
2:00 AM49 °FCool.No wind99%30.19 "HgN/A
1:00 AM49 °FCool.1 mph99%30.18 "HgN/A
12:00 AM48 °FCool.1 mph99%30.19 "HgN/A
Weather by CustomWeather, © 2014

See weather overviewHow to use our weather pages